Meteo Giornale » Osservazioni meteo Gran Bretagna » Brize Norton

ore: 18:50 - Osservazioni Meteo Brize Norton
Lat. 51° 45' N Lon. 1° 35' W Alt. 88 metri s.l.m.

coperto

20 °C

Coperto

Temp. 24 Ore

10 °C

22 °C

Ovest/Sud-Ovest

11.1 Km/h

Dew point 10 °C

Umidità 52 %

Visibilità  10 Km

Il sole sorge alle ore 06:18

Il sole tramonta alle ore 19:53

Data e Ora Cielo e Fenomeni T °C DP °C Um. % Pres. hPa Vis. km Vento km/h
Oggi h: 18:50 coperto Coperto 20 10 52 1019 10 O/SO 11.1
Oggi h: 18:20 molto_nuvoloso Molto Nuvoloso 20 11 56 1019 10 O 11.1
Oggi h: 17:50 molto_nuvoloso Molto Nuvoloso 20 10 52 1019 10 O/SO 13
Oggi h: 17:20 molto_nuvoloso Molto Nuvoloso 21 9 46 1019 10 O 13
Oggi h: 16:50 nuvoloso Nuvoloso 22 9 43 1019 10 O 16.7
Oggi h: 16:20 poco_nuvoloso Poco Nuvoloso 22 9 43 1019 10 O/SO 14.8
Oggi h: 15:50 sereno Sereno 21 9 46 1019 10 O/SO 11.1
Oggi h: 15:20 poco_nuvoloso Poco Nuvoloso 22 10 46 1019 10 O/SO 14.8
Oggi h: 14:50 nuvoloso Nuvoloso 22 10 46 1019 10 O/SO 16.7
Oggi h: 14:20 nuvoloso Nuvoloso 21 10 49 1020 10 O 14.8
Oggi h: 13:50 molto_nuvoloso Molto Nuvoloso 22 10 46 1020 10 O 13
Oggi h: 13:20 coperto Coperto 21 10 49 1020 10 O/SO 14.8
Oggi h: 12:50 coperto Coperto 20 11 56 1020 10 O 11.1
Oggi h: 12:20 nuvoloso Nuvoloso 20 10 52 1020 10 O/SO 9.3
Oggi h: 11:50 poco_nuvoloso Poco Nuvoloso 20 10 52 1020 10 O/SO 11.1
Oggi h: 11:20 sereno Sereno 19 11 59 1020 10 O/SO 9.3
Oggi h: 10:50 sereno Sereno 18 11 63 1020 10 SO 11.1
Oggi h: 10:20 nuvoloso Nuvoloso 18 12 67 1021 10 SO 9.3
Oggi h: 09:50 molto_nuvoloso Molto Nuvoloso 16 12 77 1021 10 O/SO 7.4
Oggi h: 09:20 sereno Sereno 16 12 77 1021 10 O/SO 9.3
Oggi h: 08:50 sereno Sereno 14 11 82 1020 10 O/SO 7.4
Oggi h: 08:20 poco_nuvoloso Poco Nuvoloso 13 11 87 1020 10 N 5.5
Oggi h: 07:50 poco_nuvoloso Poco Nuvoloso 12 11 93 1020 10 N 5.5
Oggi h: 07:20 sereno Sereno 11 10 93 1020 10 N 3.7
Oggi h: 06:50 poco_nuvoloso Poco Nuvoloso 10 9 93 1020 10 N 3.7
Oggi h: 06:20 poco_nuvoloso Poco Nuvoloso 10 9 93 1020 10 N 1.8
Oggi h: 05:50 poco_nuvoloso Poco Nuvoloso 10 9 93 1020 10 N 1.8
Oggi h: 05:20 molto_nuvoloso Molto Nuvoloso 11 10 93 1019 10 N 3.7
Oggi h: 04:50 coperto Coperto 11 10 93 1019 10 N 5.5
Oggi h: 04:20 poco_nuvoloso Poco Nuvoloso 10 10 100 1019 10 N 3.7
Oggi h: 03:50 sereno Sereno 11 10 93 1019 10 N 3.7
Oggi h: 03:20 sereno Sereno 11 10 93 1019 10 N 3.7
Oggi h: 02:50 sereno Sereno 11 10 93 1019 10 N 1.8
Oggi h: 02:20 sereno Sereno 11 9 87 1019 10 N 3.7
Oggi h: 01:50 sereno Sereno 12 10 87 1019 10 N 3.7
Oggi h: 01:20 sereno Sereno 12 10 87 1019 10 N 3.7
Oggi h: 00:50 coperto Coperto 12 10 87 1019 10 N 3.7
Oggi h: 00:20 molto_nuvoloso Molto Nuvoloso 13 10 81 1019 10 N 5.5
Ieri h: 23:50 nuvoloso Nuvoloso 13 10 81 1019 10 N 5.5
Ieri h: 23:20 poco_nuvoloso Poco Nuvoloso 14 10 76 1019 10 N 3.7
Ieri h: 22:50 molto_nuvoloso Molto Nuvoloso 14 10 76 1019 10 N 5.5
Ieri h: 22:20 poco_nuvoloso Poco Nuvoloso 14 10 76 1018 10 N 5.5
Ieri h: 21:50 poco_nuvoloso Poco Nuvoloso 15 10 72 1018 10 N 5.5
Ieri h: 21:20 sereno Sereno 15 10 72 1018 10 O 7.4
Ieri h: 20:50 poco_nuvoloso Poco Nuvoloso 16 10 67 1018 10 O 9.3
Ieri h: 20:20 poco_nuvoloso Poco Nuvoloso 17 10 63 1017 10 O 7.4
Ieri h: 19:50 sereno Sereno 17 10 63 1017 10 O/NO 13